,,PressureMeas_1m,,PRMeasQMR101_1,,RHStat155_1m_1,,SRMeasQMS101R_1m,,TAStat155_1m_1,,GenWind_1,,GenWind_1,
2018-07-30, 00:00:07,VALID,919.401,VALID,0.0,VALID,97.512,VALID,0.009,VALID,19.524,VALID,93.0,VALID,0.762,
2018-07-30, 00:01:07,VALID,919.365,VALID,0.0,VALID,97.57,VALID,0.018,VALID,19.531,VALID,73.0,VALID,0.541,
2018-07-30, 00:02:07,VALID,919.344,VALID,0.0,VALID,97.599,VALID,0.023,VALID,19.536,VALID,147.0,VALID,0.731,
2018-07-30, 00:03:07,VALID,919.334,VALID,0.0,VALID,97.499,VALID,0.019,VALID,19.518,VALID,124.0,VALID,0.598,
2018-07-30, 00:04:07,VALID,919.274,VALID,0.0,VALID,97.404,VALID,0.007,VALID,19.482,VALID,169.0,VALID,1.084,
2018-07-30, 00:05:07,VALID,919.253,VALID,0.0,VALID,97.422,VALID,0.01,VALID,19.472,VALID,355.0,VALID,1.537,
2018-07-30, 00:06:07,VALID,919.227,VALID,0.0,VALID,97.454,VALID,-0.008,VALID,19.458,VALID,81.0,VALID,0.807,
2018-07-30, 00:07:07,VALID,919.215,VALID,0.0,VALID,97.499,VALID,0.011,VALID,19.447,VALID,40.0,VALID,1.089,
2018-07-30, 00:08:07,VALID,919.189,VALID,0.0,VALID,97.484,VALID,-0.002,VALID,19.404,VALID,9.0,VALID,2.301,
2018-07-30, 00:09:07,VALID,919.208,VALID,0.0,VALID,97.503,VALID,-0.001,VALID,19.371,VALID,18.0,VALID,1.976,
2018-07-30, 00:10:07,VALID,919.238,VALID,0.0,VALID,97.694,VALID,0.004,VALID,19.37,VALID,322.0,VALID,1.01,
2018-07-30, 00:11:07,VALID,919.224,VALID,0.0,VALID,97.7,VALID,-0.01,VALID,19.335,VALID,326.0,VALID,1.392,
2018-07-30, 00:12:07,VALID,919.248,VALID,0.0,VALID,97.575,VALID,-0.015,VALID,19.283,VALID,339.0,VALID,1.268,
2018-07-30, 00:13:07,VALID,919.221,VALID,0.0,VALID,97.575,VALID,0.002,VALID,19.281,VALID,10.0,VALID,1.911,
2018-07-30, 00:14:07,VALID,919.241,VALID,0.0,VALID,97.656,VALID,0.005,VALID,19.283,VALID,154.0,VALID,0.24,
2018-07-30, 00:15:07,VALID,919.239,VALID,0.0,VALID,97.677,VALID,-0.001,VALID,19.259,VALID,162.0,VALID,0.618,
2018-07-30, 00:16:07,VALID,919.222,VALID,0.0,VALID,97.704,VALID,-0.005,VALID,19.243,VALID,63.0,VALID,0.597,
2018-07-30, 00:17:07,VALID,919.215,VALID,0.0,VALID,97.836,VALID,-0.001,VALID,19.258,VALID,357.0,VALID,0.932,
2018-07-30, 00:18:07,VALID,919.188,VALID,0.0,VALID,97.899,VALID,-0.01,VALID,19.237,VALID,209.0,VALID,1.146,
2018-07-30, 00:19:07,VALID,919.2,VALID,0.0,VALID,97.81,VALID,-0.019,VALID,19.2,VALID,15.0,VALID,1.065,
2018-07-30, 00:20:07,VALID,919.191,VALID,0.0,VALID,97.828,VALID,0.0,VALID,19.207,VALID,28.0,VALID,0.732,
2018-07-30, 00:21:07,VALID,919.19,VALID,0.0,VALID,97.92,VALID,-0.011,VALID,19.223,VALID,171.0,VALID,0.656,
2018-07-30, 00:22:07,VALID,919.155,VALID,0.0,VALID,97.802,VALID,0.0,VALID,19.185,VALID,297.0,VALID,1.962,
2018-07-30, 00:23:07,VALID,919.179,VALID,0.0,VALID,97.843,VALID,-0.009,VALID,19.208,VALID,31.0,VALID,1.284,
2018-07-30, 00:24:07,VALID,919.169,VALID,0.0,VALID,97.916,VALID,-0.011,VALID,19.198,VALID,166.0,VALID,1.234,
2018-07-30, 00:25:07,VALID,919.166,VALID,0.0,VALID,97.924,VALID,-0.02,VALID,19.174,VALID,200.0,VALID,1.164,
2018-07-30, 00:26:07,VALID,919.155,VALID,0.0,VALID,97.889,VALID,-0.029,VALID,19.124,VALID,248.0,VALID,0.717,
2018-07-30, 00:27:07,VALID,919.152,VALID,0.0,VALID,98.05,VALID,-0.013,VALID,19.202,VALID,49.0,VALID,0.212,
2018-07-30, 00:28:07,VALID,919.142,VALID,0.0,VALID,98.087,VALID,-0.022,VALID,19.208,VALID,52.0,VALID,0.1,
2018-07-30, 00:29:07,VALID,919.105,VALID,0.0,VALID,98.04,VALID,-0.019,VALID,19.169,VALID,52.0,VALID,0.84,
2018-07-30, 00:30:07,VALID,919.088,VALID,0.0,VALID,97.942,VALID,-0.0,VALID,19.118,VALID,36.0,VALID,0.787,
2018-07-30, 00:31:07,VALID,919.075,VALID,0.0,VALID,97.986,VALID,-0.004,VALID,19.125,VALID,4.0,VALID,0.858,
2018-07-30, 00:32:07,VALID,919.052,VALID,0.0,VALID,98.039,VALID,-0.005,VALID,19.127,VALID,265.0,VALID,1.283,
2018-07-30, 00:33:07,VALID,919.031,VALID,0.0,VALID,98.018,VALID,-0.021,VALID,19.11,VALID,272.0,VALID,0.62,
2018-07-30, 00:34:07,VALID,919.023,VALID,0.0,VALID,97.998,VALID,-0.012,VALID,19.089,VALID,23.0,VALID,0.875,
2018-07-30, 00:35:07,VALID,919.025,VALID,0.0,VALID,98.024,VALID,-0.01,VALID,19.089,VALID,315.0,VALID,0.666,
2018-07-30, 00:36:07,VALID,919.003,VALID,0.0,VALID,98.086,VALID,0.001,VALID,19.086,VALID,231.0,VALID,1.051,
2018-07-30, 00:37:07,VALID,919.011,VALID,0.0,VALID,98.099,VALID,-0.016,VALID,19.08,VALID,348.0,VALID,0.503,
2018-07-30, 00:38:07,VALID,918.989,VALID,0.0,VALID,98.078,VALID,-0.006,VALID,19.061,VALID,273.0,VALID,0.468,
2018-07-30, 00:39:07,VALID,918.977,VALID,0.0,VALID,98.055,VALID,0.0,VALID,19.05,VALID,15.0,VALID,1.75,
2018-07-30, 00:40:07,VALID,918.969,VALID,0.0,VALID,98.138,VALID,-0.012,VALID,19.069,VALID,13.0,VALID,1.027,
2018-07-30, 00:41:07,VALID,918.938,VALID,0.0,VALID,98.199,VALID,-0.003,VALID,19.069,VALID,14.0,VALID,0.398,
2018-07-30, 00:42:07,VALID,918.904,VALID,0.0,VALID,98.18,VALID,0.003,VALID,19.04,VALID,355.0,VALID,1.487,
2018-07-30, 00:43:07,VALID,918.896,VALID,0.0,VALID,98.268,VALID,-0.001,VALID,19.048,VALID,347.0,VALID,0.932,
2018-07-30, 00:44:07,VALID,918.85,VALID,0.0,VALID,98.233,VALID,0.002,VALID,19.03,VALID,4.0,VALID,1.268,
2018-07-30, 00:45:07,VALID,918.825,VALID,0.0,VALID,98.294,VALID,0.001,VALID,19.035,VALID,4.0,VALID,0.986,
2018-07-30, 00:46:07,VALID,918.792,VALID,0.0,VALID,98.293,VALID,0.007,VALID,19.027,VALID,359.0,VALID,1.027,
2018-07-30, 00:47:07,VALID,918.779,VALID,0.0,VALID,98.337,VALID,0.002,VALID,19.038,VALID,343.0,VALID,0.826,
2018-07-30, 00:48:07,VALID,918.773,VALID,0.0,VALID,98.333,VALID,0.012,VALID,19.017,VALID,47.0,VALID,0.357,
2018-07-30, 00:49:07,VALID,918.771,VALID,0.0,VALID,98.401,VALID,-0.016,VALID,19.039,VALID,31.0,VALID,0.7,
2018-07-30, 00:50:07,VALID,918.748,VALID,0.0,VALID,98.436,VALID,-0.009,VALID,19.047,VALID,36.0,VALID,0.232,
2018-07-30, 00:51:07,VALID,918.719,VALID,0.0,VALID,98.488,VALID,-0.02,VALID,19.087,VALID,41.0,VALID,0.411,
2018-07-30, 00:52:07,VALID,918.69,VALID,0.0,VALID,98.521,VALID,-0.031,VALID,19.107,VALID,16.0,VALID,0.161,
2018-07-30, 00:53:07,VALID,918.657,VALID,0.0,VALID,98.497,VALID,-0.012,VALID,19.083,VALID,346.0,VALID,0.923,
2018-07-30, 00:54:07,VALID,918.615,VALID,0.0,VALID,98.435,VALID,-0.025,VALID,19.021,VALID,352.0,VALID,0.961,
2018-07-30, 00:55:07,VALID,918.566,VALID,0.0,VALID,98.473,VALID,-0.022,VALID,19.009,VALID,13.0,VALID,0.976,
2018-07-30, 00:56:07,VALID,918.513,VALID,0.0,VALID,98.55,VALID,-0.026,VALID,19.047,VALID,16.0,VALID,0.582,
2018-07-30, 00:57:07,VALID,918.484,VALID,0.0,VALID,98.593,VALID,-0.021,VALID,19.062,VALID,19.0,VALID,1.107,
2018-07-30, 00:58:07,VALID,918.463,VALID,0.0,VALID,98.554,VALID,-0.02,VALID,19.03,VALID,12.0,VALID,1.834,
2018-07-30, 00:59:07,VALID,918.457,VALID,0.0,VALID,98.56,VALID,-0.016,VALID,19.0,VALID,355.0,VALID,1.515,
2018-07-30, 01:00:07,VALID,918.439,VALID,0.0,VALID,98.561,VALID,-0.028,VALID,18.978,VALID,11.0,VALID,1.537,
2018-07-30, 01:01:07,VALID,918.433,VALID,0.0,VALID,98.575,VALID,-0.03,VALID,18.965,VALID,1.0,VALID,1.135,
2018-07-30, 01:02:07,VALID,918.405,VALID,0.0,VALID,98.595,VALID,-0.026,VALID,18.959,VALID,3.0,VALID,1.309,
2018-07-30, 01:03:07,VALID,918.41,VALID,0.0,VALID,98.605,VALID,-0.019,VALID,18.951,VALID,350.0,VALID,1.221,
2018-07-30, 01:04:07,VALID,918.368,VALID,0.0,VALID,98.613,VALID,-0.012,VALID,18.94,VALID,341.0,VALID,1.582,
2018-07-30, 01:05:07,VALID,918.348,VALID,0.0,VALID,98.629,VALID,-0.02,VALID,18.931,VALID,358.0,VALID,1.29,
2018-07-30, 01:06:07,VALID,918.375,VALID,0.0,VALID,98.606,VALID,0.002,VALID,18.923,VALID,359.0,VALID,1.311,
2018-07-30, 01:07:07,VALID,918.389,VALID,0.0,VALID,98.564,VALID,0.012,VALID,18.888,VALID,346.0,VALID,1.414,
2018-07-30, 01:08:07,VALID,918.383,VALID,0.0,VALID,98.522,VALID,-0.006,VALID,18.88,VALID,355.0,VALID,1.215,
2018-07-30, 01:09:07,VALID,918.397,VALID,0.0,VALID,98.546,VALID,0.002,VALID,18.908,VALID,3.0,VALID,1.099,
2018-07-30, 01:10:07,VALID,918.378,VALID,0.0,VALID,98.497,VALID,-0.001,VALID,18.891,VALID,348.0,VALID,1.312,
2018-07-30, 01:11:07,VALID,918.388,VALID,0.0,VALID,98.5,VALID,0.001,VALID,18.878,VALID,352.0,VALID,0.729,
2018-07-30, 01:12:07,VALID,918.384,VALID,0.0,VALID,98.51,VALID,-0.006,VALID,18.896,VALID,360.0,VALID,0.812,
2018-07-30, 01:13:07,VALID,918.372,VALID,0.0,VALID,98.51,VALID,-0.0,VALID,18.911,VALID,310.0,VALID,1.019,
2018-07-30, 01:14:07,VALID,918.365,VALID,0.0,VALID,98.471,VALID,-0.001,VALID,18.875,VALID,324.0,VALID,0.875,
2018-07-30, 01:15:07,VALID,918.322,VALID,0.0,VALID,98.494,VALID,0.001,VALID,18.888,VALID,8.0,VALID,0.896,
2018-07-30, 01:16:07,VALID,918.274,VALID,0.0,VALID,98.496,VALID,0.006,VALID,18.88,VALID,5.0,VALID,0.98,
2018-07-30, 01:17:07,VALID,918.231,VALID,0.0,VALID,98.51,VALID,-0.007,VALID,18.876,VALID,349.0,VALID,0.809,
2018-07-30, 01:18:07,VALID,918.234,VALID,0.0,VALID,98.522,VALID,-0.006,VALID,18.887,VALID,304.0,VALID,0.839,
2018-07-30, 01:19:07,VALID,918.212,VALID,0.0,VALID,98.486,VALID,0.001,VALID,18.861,VALID,308.0,VALID,0.738,
2018-07-30, 01:20:07,VALID,918.17,VALID,0.0,VALID,98.479,VALID,-0.002,VALID,18.854,VALID,352.0,VALID,1.486,
2018-07-30, 01:21:07,VALID,918.156,VALID,0.0,VALID,98.494,VALID,0.059,VALID,18.859,VALID,349.0,VALID,1.143,
2018-07-30, 01:22:07,VALID,918.167,VALID,0.0,VALID,98.54,VALID,0.075,VALID,18.887,VALID,3.0,VALID,0.536,
2018-07-30, 01:23:07,VALID,918.169,VALID,0.0,VALID,98.509,VALID,0.07,VALID,18.871,VALID,12.0,VALID,0.664,
2018-07-30, 01:24:07,VALID,918.174,VALID,0.0,VALID,98.508,VALID,0.075,VALID,18.86,VALID,358.0,VALID,0.992,
2018-07-30, 01:25:07,VALID,918.16,VALID,0.0,VALID,98.547,VALID,0.077,VALID,18.861,VALID,12.0,VALID,1.659,
2018-07-30, 01:26:07,VALID,918.161,VALID,0.0,VALID,98.564,VALID,0.058,VALID,18.85,VALID,359.0,VALID,1.494,
2018-07-30, 01:27:07,VALID,918.176,VALID,0.0,VALID,98.585,VALID,0.075,VALID,18.844,VALID,357.0,VALID,0.654,
2018-07-30, 01:28:07,VALID,918.161,VALID,0.0,VALID,98.615,VALID,0.071,VALID,18.85,VALID,349.0,VALID,0.911,
2018-07-30, 01:29:07,VALID,918.15,VALID,0.0,VALID,98.62,VALID,0.074,VALID,18.841,VALID,5.0,VALID,1.407,
2018-07-30, 01:30:07,VALID,918.132,VALID,0.0,VALID,98.617,VALID,0.07,VALID,18.842,VALID,6.0,VALID,0.967,
2018-07-30, 01:31:07,VALID,918.114,VALID,0.0,VALID,98.629,VALID,0.068,VALID,18.824,VALID,4.0,VALID,0.133,
2018-07-30, 01:32:07,VALID,918.102,VALID,0.0,VALID,98.634,VALID,0.071,VALID,18.831,VALID,3.0,VALID,0.245,
2018-07-30, 01:33:07,VALID,918.099,VALID,0.0,VALID,98.689,VALID,0.064,VALID,18.869,VALID,29.0,VALID,0.523,
2018-07-30, 01:34:07,VALID,918.074,VALID,0.0,VALID,98.64,VALID,0.069,VALID,18.865,VALID,22.0,VALID,0.55,
2018-07-30, 01:35:07,VALID,918.064,VALID,0.0,VALID,98.625,VALID,0.067,VALID,18.851,VALID,12.0,VALID,0.732,
2018-07-30, 01:36:07,VALID,918.07,VALID,0.0,VALID,98.624,VALID,-0.035,VALID,18.851,VALID,351.0,VALID,0.587,
2018-07-30, 01:37:07,VALID,918.062,VALID,0.0,VALID,98.627,VALID,-0.036,VALID,18.857,VALID,4.0,VALID,0.302,
2018-07-30, 01:38:07,VALID,918.046,VALID,0.0,VALID,98.626,VALID,-0.044,VALID,18.869,VALID,348.0,VALID,0.664,
2018-07-30, 01:39:07,VALID,918.021,VALID,0.0,VALID,98.583,VALID,-0.042,VALID,18.841,VALID,4.0,VALID,0.615,
2018-07-30, 01:40:07,VALID,917.998,VALID,0.0,VALID,98.555,VALID,-0.043,VALID,18.826,VALID,4.0,VALID,0.765,
2018-07-30, 01:41:07,VALID,917.979,VALID,0.0,VALID,98.537,VALID,-0.041,VALID,18.814,VALID,4.0,VALID,0.405,
2018-07-30, 01:42:07,VALID,917.977,VALID,0.0,VALID,98.504,VALID,-0.047,VALID,18.812,VALID,352.0,VALID,0.034,
2018-07-30, 01:43:07,VALID,917.961,VALID,0.0,VALID,98.509,VALID,-0.045,VALID,18.815,VALID,340.0,VALID,0.097,
2018-07-30, 01:44:07,VALID,917.936,VALID,0.0,VALID,98.465,VALID,-0.034,VALID,18.807,VALID,334.0,VALID,0.068,
2018-07-30, 01:45:07,VALID,917.936,VALID,0.0,VALID,98.431,VALID,-0.045,VALID,18.82,VALID,351.0,VALID,0.225,
2018-07-30, 01:46:07,VALID,917.922,VALID,0.0,VALID,98.366,VALID,-0.047,VALID,18.835,VALID,345.0,VALID,0.225,
2018-07-30, 01:47:07,VALID,917.921,VALID,0.0,VALID,98.206,VALID,-0.024,VALID,18.819,VALID,349.0,VALID,0.418,
2018-07-30, 01:48:07,VALID,917.924,VALID,0.0,VALID,98.043,VALID,-0.034,VALID,18.838,VALID,330.0,VALID,0.387,
2018-07-30, 01:49:07,VALID,917.919,VALID,0.0,VALID,97.856,VALID,-0.033,VALID,18.845,VALID,359.0,VALID,0.445,
2018-07-30, 01:50:07,VALID,917.914,VALID,0.0,VALID,97.713,VALID,-0.038,VALID,18.85,VALID,14.0,VALID,0.665,
2018-07-30, 01:51:07,VALID,917.919,VALID,0.0,VALID,97.543,VALID,-0.002,VALID,18.857,VALID,355.0,VALID,0.676,
2018-07-30, 01:52:07,VALID,917.912,VALID,0.0,VALID,97.343,VALID,-0.005,VALID,18.879,VALID,349.0,VALID,0.681,
2018-07-30, 01:53:07,VALID,917.896,VALID,0.0,VALID,97.216,VALID,-0.003,VALID,18.892,VALID,358.0,VALID,0.512,
2018-07-30, 01:54:07,VALID,917.893,VALID,0.0,VALID,97.178,VALID,-0.018,VALID,18.899,VALID,337.0,VALID,0.459,
2018-07-30, 01:55:07,VALID,917.875,VALID,0.0,VALID,97.128,VALID,-0.009,VALID,18.907,VALID,337.0,VALID,0.541,
2018-07-30, 01:56:06,VALID,917.857,VALID,0.0,VALID,97.036,VALID,0.008,VALID,18.91,VALID,337.0,VALID,0.311,
2018-07-30, 01:57:06,VALID,917.85,VALID,0.0,VALID,97.148,VALID,-0.004,VALID,18.933,VALID,344.0,VALID,0.271,
2018-07-30, 01:58:06,VALID,917.844,VALID,0.0,VALID,97.222,VALID,-0.005,VALID,18.935,VALID,334.0,VALID,0.14,
2018-07-30, 01:59:06,VALID,917.829,VALID,0.0,VALID,97.263,VALID,-0.006,VALID,18.939,VALID,330.0,VALID,0.017,
2018-07-30, 02:00:06,VALID,917.788,VALID,0.0,VALID,97.296,VALID,-0.006,VALID,18.933,VALID,334.0,VALID,0.093,
2018-07-30, 02:01:06,VALID,917.765,VALID,0.0,VALID,97.166,VALID,-0.005,VALID,18.911,VALID,1.0,VALID,0.466,
2018-07-30, 02:02:06,VALID,917.736,VALID,0.0,VALID,96.95,VALID,-0.005,VALID,18.9,VALID,10.0,VALID,0.872,
2018-07-30, 02:03:06,VALID,917.725,VALID,0.0,VALID,96.722,VALID,0.001,VALID,18.923,VALID,349.0,VALID,0.518,
2018-07-30, 02:04:06,VALID,917.724,VALID,0.0,VALID,96.474,VALID,-0.011,VALID,18.969,VALID,319.0,VALID,0.079,
2018-07-30, 02:05:06,VALID,917.733,VALID,0.0,VALID,96.382,VALID,-0.008,VALID,19.01,VALID,311.0,VALID,0.409,
2018-07-30, 02:06:06,VALID,917.729,VALID,0.0,VALID,95.908,VALID,0.015,VALID,19.016,VALID,343.0,VALID,0.563,
2018-07-30, 02:07:06,VALID,917.718,VALID,0.0,VALID,95.499,VALID,0.02,VALID,19.061,VALID,14.0,VALID,0.831,
2018-07-30, 02:08:06,VALID,917.703,VALID,0.0,VALID,95.389,VALID,0.034,VALID,19.092,VALID,19.0,VALID,0.838,
2018-07-30, 02:09:06,VALID,917.703,VALID,0.0,VALID,95.3,VALID,0.015,VALID,19.088,VALID,30.0,VALID,0.737,
2018-07-30, 02:10:06,VALID,917.702,VALID,0.0,VALID,95.43,VALID,0.025,VALID,19.075,VALID,3.0,VALID,0.359,
2018-07-30, 02:11:06,VALID,917.681,VALID,0.0,VALID,95.921,VALID,0.031,VALID,19.091,VALID,360.0,VALID,0.0,
2018-07-30, 02:12:06,VALID,917.666,VALID,0.0,VALID,96.032,VALID,0.021,VALID,19.084,VALID,8.0,VALID,0.0,
2018-07-30, 02:13:06,VALID,917.656,VALID,0.0,VALID,96.08,VALID,0.015,VALID,19.083,VALID,337.0,VALID,0.0,
2018-07-30, 02:14:06,VALID,917.633,VALID,0.0,VALID,96.019,VALID,0.03,VALID,19.066,VALID,281.0,VALID,0.0,
2018-07-30, 02:15:06,VALID,917.618,VALID,0.0,VALID,95.944,VALID,0.018,VALID,19.048,VALID,269.0,VALID,0.023,
2018-07-30, 02:16:06,VALID,917.589,VALID,0.0,VALID,95.696,VALID,0.008,VALID,19.048,VALID,269.0,VALID,0.0,
2018-07-30, 02:17:06,VALID,917.581,VALID,0.0,VALID,95.857,VALID,0.007,VALID,19.072,VALID,269.0,VALID,0.0,
2018-07-30, 02:18:06,VALID,917.586,VALID,0.0,VALID,96.184,VALID,0.027,VALID,19.111,VALID,269.0,VALID,0.0,
2018-07-30, 02:19:06,VALID,917.584,VALID,0.0,VALID,96.05,VALID,0.032,VALID,19.099,VALID,269.0,VALID,0.0,
2018-07-30, 02:20:06,VALID,917.566,VALID,0.0,VALID,96.182,VALID,0.022,VALID,19.11,VALID,269.0,VALID,0.0,
2018-07-30, 02:21:06,VALID,917.555,VALID,0.0,VALID,96.239,VALID,-0.025,VALID,19.098,VALID,211.0,VALID,0.0,
2018-07-30, 02:22:06,VALID,917.533,VALID,0.0,VALID,95.899,VALID,-0.023,VALID,19.039,VALID,117.0,VALID,0.0,
2018-07-30, 02:23:06,VALID,917.515,VALID,0.0,VALID,95.731,VALID,-0.038,VALID,19.007,VALID,115.0,VALID,0.0,
2018-07-30, 02:24:06,VALID,917.49,VALID,0.0,VALID,95.939,VALID,-0.035,VALID,18.999,VALID,122.0,VALID,0.0,
2018-07-30, 02:25:06,VALID,917.454,VALID,0.0,VALID,96.497,VALID,-0.036,VALID,18.973,VALID,118.0,VALID,0.224,
2018-07-30, 02:26:06,VALID,917.433,VALID,0.0,VALID,96.977,VALID,-0.034,VALID,18.935,VALID,124.0,VALID,0.454,
2018-07-30, 02:27:06,VALID,917.418,VALID,0.0,VALID,97.334,VALID,-0.032,VALID,18.912,VALID,142.0,VALID,0.119,
2018-07-30, 02:28:06,VALID,917.414,VALID,0.0,VALID,97.578,VALID,-0.03,VALID,18.922,VALID,147.0,VALID,0.0,
2018-07-30, 02:29:06,VALID,917.4,VALID,0.0,VALID,97.724,VALID,-0.038,VALID,18.917,VALID,148.0,VALID,0.0,
2018-07-30, 02:30:06,VALID,917.388,VALID,0.0,VALID,97.811,VALID,-0.023,VALID,18.907,VALID,139.0,VALID,0.231,
2018-07-30, 02:31:06,VALID,917.398,VALID,0.0,VALID,97.762,VALID,-0.032,VALID,18.871,VALID,125.0,VALID,0.379,
2018-07-30, 02:32:06,VALID,917.4,VALID,0.0,VALID,97.728,VALID,-0.031,VALID,18.861,VALID,125.0,VALID,0.002,
2018-07-30, 02:33:06,VALID,917.402,VALID,0.0,VALID,97.774,VALID,-0.042,VALID,18.861,VALID,119.0,VALID,0.047,
2018-07-30, 02:34:06,VALID,917.411,VALID,0.0,VALID,97.744,VALID,-0.048,VALID,18.839,VALID,117.0,VALID,0.057,
2018-07-30, 02:35:06,VALID,917.404,VALID,0.0,VALID,97.741,VALID,-0.02,VALID,18.828,VALID,117.0,VALID,0.0,
2018-07-30, 02:36:06,VALID,917.395,VALID,0.0,VALID,97.774,VALID,-0.023,VALID,18.821,VALID,117.0,VALID,0.0,
2018-07-30, 02:37:06,VALID,917.396,VALID,0.0,VALID,97.81,VALID,-0.025,VALID,18.814,VALID,117.0,VALID,0.0,
2018-07-30, 02:38:06,VALID,917.381,VALID,0.0,VALID,97.861,VALID,-0.038,VALID,18.824,VALID,117.0,VALID,0.0,
2018-07-30, 02:39:06,VALID,917.377,VALID,0.0,VALID,97.952,VALID,-0.024,VALID,18.853,VALID,117.0,VALID,0.0,
2018-07-30, 02:40:06,VALID,917.383,VALID,0.0,VALID,98.024,VALID,-0.013,VALID,18.891,VALID,117.0,VALID,0.0,
2018-07-30, 02:41:06,VALID,917.374,VALID,0.0,VALID,98.033,VALID,-0.019,VALID,18.89,VALID,117.0,VALID,0.0,
2018-07-30, 02:42:06,VALID,917.37,VALID,0.0,VALID,98.032,VALID,-0.022,VALID,18.887,VALID,117.0,VALID,0.0,
2018-07-30, 02:43:06,VALID,917.353,VALID,0.0,VALID,98.089,VALID,-0.016,VALID,18.895,VALID,117.0,VALID,0.0,
2018-07-30, 02:44:06,VALID,917.341,VALID,0.0,VALID,98.067,VALID,-0.023,VALID,18.882,VALID,117.0,VALID,0.0,
2018-07-30, 02:45:06,VALID,917.335,VALID,0.0,VALID,98.006,VALID,-0.008,VALID,18.844,VALID,117.0,VALID,0.0,
2018-07-30, 02:46:06,VALID,917.316,VALID,0.0,VALID,97.981,VALID,-0.021,VALID,18.808,VALID,117.0,VALID,0.0,
2018-07-30, 02:47:06,VALID,917.309,VALID,0.0,VALID,98.024,VALID,-0.025,VALID,18.829,INVALID,360.0,VALID,0.0,
2018-07-30, 02:48:06,VALID,917.31,VALID,0.0,VALID,98.059,VALID,-0.034,VALID,18.841,INVALID,360.0,VALID,0.001,
2018-07-30, 02:49:06,VALID,917.288,VALID,0.0,VALID,98.028,VALID,-0.021,VALID,18.829,INVALID,360.0,VALID,0.0,
2018-07-30, 02:50:06,VALID,917.278,VALID,0.0,VALID,98.027,VALID,-0.017,VALID,18.818,INVALID,360.0,VALID,0.004,
2018-07-30, 02:51:06,VALID,917.249,VALID,0.0,VALID,98.064,VALID,-0.016,VALID,18.831,VALID,94.0,VALID,0.343,
2018-07-30, 02:52:06,VALID,917.23,VALID,0.0,VALID,98.051,VALID,-0.019,VALID,18.821,VALID,50.0,VALID,1.074,
2018-07-30, 02:53:06,VALID,917.215,VALID,0.0,VALID,97.895,VALID,-0.024,VALID,18.752,VALID,57.0,VALID,1.082,
2018-07-30, 02:54:06,VALID,917.201,VALID,0.0,VALID,97.864,VALID,-0.024,VALID,18.734,VALID,49.0,VALID,0.425,
2018-07-30, 02:55:06,VALID,917.198,VALID,0.0,VALID,97.614,VALID,-0.015,VALID,18.773,VALID,96.0,VALID,0.061,
2018-07-30, 02:56:06,VALID,917.175,VALID,0.0,VALID,97.552,VALID,-0.017,VALID,18.805,VALID,200.0,VALID,0.517,
2018-07-30, 02:57:06,VALID,917.148,VALID,0.0,VALID,97.523,VALID,-0.02,VALID,18.796,VALID,180.0,VALID,0.806,
2018-07-30, 02:58:06,VALID,917.113,VALID,0.0,VALID,97.578,VALID,-0.016,VALID,18.79,VALID,146.0,VALID,0.315,
2018-07-30, 02:59:06,VALID,917.078,VALID,0.0,VALID,97.69,VALID,-0.027,VALID,18.799,VALID,134.0,VALID,0.37,
2018-07-30, 03:00:06,VALID,917.067,VALID,0.0,VALID,97.674,VALID,-0.01,VALID,18.781,VALID,120.0,VALID,0.424,
2018-07-30, 03:01:06,VALID,917.057,VALID,0.0,VALID,97.704,VALID,-0.018,VALID,18.789,VALID,102.0,VALID,0.156,
2018-07-30, 03:02:06,VALID,917.048,VALID,0.0,VALID,97.683,VALID,-0.006,VALID,18.781,VALID,94.0,VALID,0.304,
2018-07-30, 03:03:06,VALID,917.027,VALID,0.0,VALID,97.598,VALID,-0.019,VALID,18.756,VALID,95.0,VALID,0.291,
2018-07-30, 03:04:06,VALID,917.022,VALID,0.0,VALID,97.562,VALID,-0.027,VALID,18.741,VALID,107.0,VALID,0.536,
2018-07-30, 03:05:06,VALID,917.004,VALID,0.0,VALID,97.528,VALID,-0.024,VALID,18.728,VALID,109.0,VALID,0.855,
2018-07-30, 03:06:06,VALID,916.985,VALID,0.0,VALID,97.555,VALID,0.004,VALID,18.74,VALID,95.0,VALID,1.065,
2018-07-30, 03:07:06,VALID,916.966,VALID,0.0,VALID,97.571,VALID,0.025,VALID,18.758,VALID,86.0,VALID,1.106,
2018-07-30, 03:08:06,VALID,916.971,VALID,0.0,VALID,97.399,VALID,0.026,VALID,18.725,VALID,87.0,VALID,0.886,
2018-07-30, 03:09:06,VALID,916.948,VALID,0.0,VALID,97.373,VALID,0.016,VALID,18.736,VALID,89.0,VALID,0.857,
2018-07-30, 03:10:06,VALID,916.939,VALID,0.0,VALID,97.207,VALID,0.006,VALID,18.738,VALID,94.0,VALID,0.729,
2018-07-30, 03:11:06,VALID,916.91,VALID,0.0,VALID,97.088,VALID,0.02,VALID,18.742,VALID,98.0,VALID,0.667,
2018-07-30, 03:12:06,VALID,916.906,VALID,0.0,VALID,97.032,VALID,0.002,VALID,18.753,VALID,93.0,VALID,0.58,
2018-07-30, 03:13:06,VALID,916.885,VALID,0.0,VALID,96.967,VALID,-0.004,VALID,18.752,VALID,89.0,VALID,0.495,
2018-07-30, 03:14:06,VALID,916.874,VALID,0.0,VALID,96.905,VALID,0.008,VALID,18.732,VALID,100.0,VALID,0.381,
2018-07-30, 03:15:06,VALID,916.857,VALID,0.0,VALID,96.943,VALID,0.021,VALID,18.722,VALID,110.0,VALID,0.476,
2018-07-30, 03:16:06,VALID,916.848,VALID,0.0,VALID,97.068,VALID,-0.003,VALID,18.709,VALID,112.0,VALID,0.604,
2018-07-30, 03:17:06,VALID,916.805,VALID,0.0,VALID,97.253,VALID,0.0,VALID,18.715,VALID,114.0,VALID,0.716,
2018-07-30, 03:18:06,VALID,916.788,VALID,0.0,VALID,97.485,VALID,0.006,VALID,18.72,VALID,112.0,VALID,0.764,
2018-07-30, 03:19:06,VALID,916.771,VALID,0.0,VALID,97.619,VALID,0.014,VALID,18.718,VALID,103.0,VALID,0.548,
2018-07-30, 03:20:06,VALID,916.765,VALID,0.0,VALID,97.707,VALID,0.022,VALID,18.701,VALID,99.0,VALID,0.496,
2018-07-30, 03:21:06,VALID,916.773,VALID,0.0,VALID,97.744,VALID,-0.008,VALID,18.69,VALID,92.0,VALID,0.361,
2018-07-30, 03:22:06,VALID,916.794,VALID,0.0,VALID,97.751,VALID,-0.003,VALID,18.68,VALID,86.0,VALID,0.338,
2018-07-30, 03:23:06,VALID,916.805,VALID,0.0,VALID,97.752,VALID,0.019,VALID,18.669,VALID,84.0,VALID,0.241,
2018-07-30, 03:24:06,VALID,916.811,VALID,0.0,VALID,97.783,VALID,-0.007,VALID,18.675,VALID,84.0,VALID,0.23,
2018-07-30, 03:25:06,VALID,916.814,VALID,0.0,VALID,97.777,VALID,0.004,VALID,18.683,VALID,84.0,VALID,0.179,
2018-07-30, 03:26:06,VALID,916.809,VALID,0.0,VALID,97.766,VALID,-0.001,VALID,18.672,VALID,84.0,VALID,0.045,
2018-07-30, 03:27:06,VALID,916.806,VALID,0.0,VALID,97.793,VALID,-0.015,VALID,18.668,VALID,84.0,VALID,0.126,
2018-07-30, 03:28:06,VALID,916.788,VALID,0.0,VALID,97.821,VALID,0.007,VALID,18.659,VALID,89.0,VALID,0.267,
2018-07-30, 03:29:06,VALID,916.774,VALID,0.0,VALID,97.839,VALID,-0.005,VALID,18.657,VALID,98.0,VALID,0.433,
2018-07-30, 03:30:06,VALID,916.749,VALID,0.0,VALID,97.854,VALID,0.012,VALID,18.634,VALID,99.0,VALID,0.548,
2018-07-30, 03:31:06,VALID,916.744,VALID,0.0,VALID,97.858,VALID,0.005,VALID,18.617,VALID,104.0,VALID,0.702,
2018-07-30, 03:32:06,VALID,916.729,VALID,0.0,VALID,97.896,VALID,0.012,VALID,18.609,VALID,106.0,VALID,0.766,
2018-07-30, 03:33:06,VALID,916.738,VALID,0.0,VALID,97.974,VALID,-0.011,VALID,18.621,VALID,110.0,VALID,1.15,
2018-07-30, 03:34:06,VALID,916.742,VALID,0.0,VALID,97.987,VALID,-0.002,VALID,18.633,VALID,112.0,VALID,1.431,
2018-07-30, 03:35:06,VALID,916.749,VALID,0.0,VALID,97.922,VALID,-0.003,VALID,18.635,VALID,119.0,VALID,1.399,
2018-07-30, 03:36:06,VALID,916.742,VALID,0.0,VALID,97.835,VALID,0.01,VALID,18.669,VALID,129.0,VALID,1.244,
2018-07-30, 03:37:06,VALID,916.748,VALID,0.0,VALID,97.866,VALID,0.014,VALID,18.722,VALID,130.0,VALID,0.878,
2018-07-30, 03:38:06,VALID,916.737,VALID,0.0,VALID,97.885,VALID,0.027,VALID,18.774,VALID,125.0,VALID,0.924,
2018-07-30, 03:39:06,VALID,916.736,VALID,0.0,VALID,97.854,VALID,0.031,VALID,18.786,VALID,124.0,VALID,0.905,